Regional Weather Roundup
Issued by NWS

Home | Current Version | Previous Version | Graphics & Text | Print | Product List | Glossary On
Versions: 1 2 3 4 5 6 7 8 9 10 11 12 13 14 15 16 17 18 19 20 21 22 23 24 25 26 27 28 29 30 31 32 33 34 35 36 37 38 39 40 41 42 43 44 45 46 47 48 49 50
000
ASUS43 KTOP 290659
RWRKS

WEATHER ROUNDUP FOR KANSAS
NATIONAL WEATHER SERVICE GOODLAND KS
200 AM CDT SUN MAR 29 2015

NOTE:  "FAIR" INDICATES FEW OR NO CLOUDS BELOW 12,000 FEET WITH NO
SIGNIFICANT WEATHER AND/OR OBSTRUCTIONS TO VISIBILITY.

KSZ001>006-013>018-027>032-041>047-290800-
NORTHWEST KANSAS

CITY           SKY/WX    TMP DP  RH WIND       PRES   REMARKS
GOODLAND       MOCLDY    59  36  42 S13G24    29.86S
HAYS           CLEAR     57  39  51 S20       29.83F
HILL CITY      CLEAR     61  44  53 S17G28    29.80F
RUSSELL        CLEAR     57  42  57 S23G30    29.82F
$$

KSZ061>065-074>080-084>089-290800-
SOUTHWEST KANSAS

CITY           SKY/WX    TMP DP  RH WIND       PRES   REMARKS
DODGE CITY     CLEAR     56  43  61 S18       29.90F
ELKHART          N/A     57  26  30 S14         N/A
GARDEN CITY    CLEAR     54  43  66 SE14      29.86F
GREAT BEND     CLEAR     55  39  54 S22G28    29.85F
LIBERAL        CLEAR     54  36  50 S9        29.91F
$$

KSZ066>073-081>083-090>101-290800-
SOUTHEAST KANSAS

CITY           SKY/WX    TMP DP  RH WIND       PRES   REMARKS
CHANUTE        CLEAR     41  36  82 SE13      30.02F
COFFEYVILLE    CLEAR     46  40  79 S10       30.04F
HUTCHINSON     CLEAR     53  40  61 S15       29.92F
MEDICINE LODGE   N/A     52  41  66 SE9       29.93F
NEWTON         CLEAR     46  36  66 SE12      29.93F
PARSONS        CLEAR     45  40  82 SE6       30.04F
WICHITA INTL   CLEAR     51  40  65 S15       29.93F
WICHITA JABRA  CLEAR     52  40  63 S16       29.93F
WINFIELD       CLEAR     50  42  74 SE12      29.98F
$$

KSZ007>012-019>026-033>040-048>060-102>105-290800-
NORTHEAST KANSAS

CITY           SKY/WX    TMP DP  RH WIND       PRES   REMARKS
CONCORDIA      CLEAR     48  40  73 SE18      29.85F
EMPORIA        CLEAR     41  36  82 SE13G21   29.97F
LAWRENCE       CLEAR     39  33  79 SE16      29.99F WCI  30
MANHATTAN      CLEAR     45  37  73 S7        29.93F
OLATHE IND     CLEAR     38  32  79 SE21G28   30.01F WCI  28
OLATHE EXE     CLEAR     38  32  79 SE14G24   30.01F WCI  30
SALINA         CLEAR     50  40  68 S12       29.88F
TOPEKA BILLARD CLEAR     41  33  73 SE10      29.98F
TOPEKA FORBES  CLEAR     42  34  73 SE16      29.96F
$$



USA.gov is the U.S. government's official web portal to all federal, state and local government web resources and services.